Simultaneous Nadir Overpasses (SNOs) Predictions

Prediction of SNOs between GOES-14 and NOAA-20 Satellite Orbit:

Table of predicted SNOs for the next 14.0 days since TLE Epoch: 12/31/2021
Index Date Time (GOES-14) GOES-14 Lat,Lon NOAA-20 Lat,Lon Distance(km) Time Diff (sec)
1 01/01/2022 08:25:43 0.00,-104.55 0.08,-104.91 41.27 80
2 01/02/2022 08:04:16 0.02,-104.55 -0.89,-100.37 475.80 80
3 01/03/2022 20:26:11 -0.00,-104.22 -0.32,-105.66 163.20 80
4 01/04/2022 20:10:05 -0.01,-104.23 0.71,-101.12 354.46 80
5 01/06/2022 08:30:30 -0.00,-104.57 0.39,-106.40 208.64 2
6 01/07/2022 08:10:26 0.00,-104.57 -0.58,-101.85 308.99 80
7 01/08/2022 20:32:20 0.01,-104.25 -0.63,-107.14 329.86 80
8 01/09/2022 20:16:15 0.01,-104.26 0.40,-102.61 188.24 80
9 01/11/2022 08:35:22 -0.01,-104.60 0.70,-107.89 373.68 80
10 01/12/2022 08:19:16 -0.01,-104.61 -0.27,-103.34 144.31 80
11 01/13/2022 20:38:30 0.01,-104.28 -0.93,-108.63 494.66 80
